Find Samsat-ION

NORAD ID: 57168 Int'l Des: NNA 2023-091 Owner: SNIU Country: RU operational
LEOCIRCULARRETROGRADESSO

当前视图

正在加载3D地球...

关于 Samsat-ION

正在加载描述...

即将过境

Passes for default location (London). Set your location on the main map for personalized predictions.

高度历史

Loading altitude history...

两行轨道根数

1 57168U 23091C 26151.51234228 .00012015 00000-0 46545-3 0 9990
2 57168 97.5034 213.7615 0012122 158.9088 201.2652 15.26244924161712
Epoch: May 31, 2026 • Age: 8 hours

当前状态

高度 498.6 km
速度 7.62 km/s
星下点 70.60°N, 4.25°W
发射日期 Jun 27, 2023
运行时间 2.9 years
类型 other

技术详情

分类 Payload
质量 4.00 kg
干质量 4.00 kg
总质量 4.00 kg
长度 0.30 m
直径 0.10 m
跨度 0.30 m
形状 Box
制造商 SNIU
平台类型 Cubesat 3U
阶段状态 In Orbit
所有者/国家 SNIU/RU

Most Searched